CW4185 Weather Reports


time (UTC)temp
C
wind
direction
speed
KPH
gust
KPH
rain 1hr
cm
rain 24hr
cm
rain mn
cm
humidity
%
barometer
mb
20260506163648 26 170 9.7 24.1 0.00 0.00 0.03 88 1013.5
20260506163146 27 180 11.3 20.9 0.00 0.00 0.03 88 1013.5
20260506162647 26 174 16.1 20.9 0.00 0.00 0.03 88 1013.2
20260506162146 27 170 14.5 22.5 0.00 0.00 0.03 87 1013.2
20260506161647 27 152 16.1 17.7 0.00 0.00 0.03 87 1012.9
20260506161146 27 160 9.7 12.9 0.00 0.00 0.03 88 1013.2
20260506160648 26 183 12.9 19.3 0.00 0.00 0.03 89 1013.2
20260506160147 26 197 8.0 25.7 0.00 0.00 0.03 88 1013.2
20260506155647 27 167 14.5 19.3 0.00 0.00 0.03 88 1012.9
20260506155147 27 186 12.9 16.1 0.00 0.00 0.03 89 1012.9
20260506154647 26 170 12.9 20.9 0.00 0.00 0.03 89 1013.2
20260506154147 26 163 14.5 20.9 0.00 0.00 0.03 89 1013.2
20260506153647 26 169 12.9 17.7 0.00 0.00 0.03 90 1012.9
20260506153147 26 159 17.7 20.9 0.00 0.00 0.03 90 1012.9
20260506152646 26 176 17.7 24.1 0.00 0.00 0.03 91 1012.9
20260506152146 26 184 14.5 20.9 0.00 0.00 0.03 91 1012.9
20260506151647 26 163 9.7 16.1 0.00 0.00 0.03 91 1012.9
20260506151147 26 172 11.3 17.7 0.00 0.00 0.03 91 1012.9
20260506150646 26 164 14.5 17.7 0.00 0.00 0.03 91 1012.9
20260506150147 26 173 12.9 17.7 0.00 0.00 0.03 91 1012.9
20260506145647 26 153 12.9 24.1 0.00 0.00 0.03 92 1012.9
20260506145147 26 167 12.9 17.7 0.00 0.00 0.03 92 1012.9
20260506144646 25 167 16.1 19.3 0.00 0.00 0.03 93 1012.9
20260506144147 25 175 9.7 20.9 0.00 0.00 0.03 93 1012.9
20260506143648 25 163 17.7 20.9 0.00 0.00 0.03 93 1012.9
20260506143146 25 164 16.1 20.9 0.00 0.00 0.03 93 1012.9
20260506142647 25 147 11.3 19.3 0.00 0.00 0.03 94 1012.5
20260506142147 25 169 8.0 20.9 0.00 0.00 0.03 94 1012.2
20260506141647 25 156 9.7 17.7 0.00 0.00 0.03 94 1012.5
20260506141154 25 178 14.5 17.7 0.00 0.00 0.03 95 1012.5
20260506140647 25 168 11.3 17.7 0.00 0.00 0.03 95 1012.5
20260506140149 25 170 9.7 19.3 0.00 0.00 0.03 95 1012.5
20260506135647 25 162 14.5 20.9 0.00 0.00 0.03 95 1012.2
20260506135147 25 153 12.9 12.9 0.00 0.00 0.03 96 1012.5
20260506134647 25 151 8.0 14.5 0.00 0.00 0.03 96 1012.5
20260506134147 25 178 12.9 17.7 0.00 0.00 0.03 96 1012.5
20260506133647 25 142 9.7 19.3 0.00 0.00 0.03 97 1012.5
20260506133146 24 161 8.0 12.9 0.00 0.00 0.03 97 1012.5
20260506132646 24 146 6.4 14.5 0.00 0.00 0.03 97 1012.5
20260506132148 24 170 9.7 16.1 0.00 0.00 0.03 98 1012.5
20260506131646 24 159 8.0 12.9 0.00 0.00 0.03 98 1012.2
20260506131146 24 164 9.7 12.9 0.00 0.00 0.03 98 1012.5
20260506130647 23 154 9.7 14.5 0.00 0.00 0.03 98 1012.2
20260506130147 23 133 8.0 12.9 0.00 0.00 0.03 99 1012.2
20260506125647 23 130 11.3 11.3 0.00 0.00 0.03 99 1012.5
20260506125147 23 158 4.8 11.3 0.00 0.00 0.03 99 1012.5
20260506124647 23 147 3.2 9.7 0.00 0.00 0.03 99 1012.2
20260506124147 23 165 8.0 11.3 0.00 0.00 0.03 99 1012.2
20260506123647 23 161 8.0 9.7 0.00 0.00 0.03 99 1012.2
20260506123146 23 124 4.8 9.7 0.00 0.00 0.03 99 1012.2
20260506122647 23 159 4.8 12.9 0.00 0.00 0.03 99 1011.9
20260506122147 23 133 11.3 11.3 0.00 0.00 0.03 99 1011.9
20260506121647 23 142 4.8 11.3 0.00 0.00 0.03 99 1012.2
20260506121147 23 133 4.8 9.7 0.00 0.00 0.03 99 1011.9
20260506120647 23 137 3.2 11.3 0.00 0.00 0.03 99 1011.9
20260506120147 23 163 6.4 9.7 0.00 0.00 0.03 99 1011.9
20260506115646 23 134 11.3 11.3 0.00 0.00 0.03 99 1011.9
20260506115146 23 133 4.8 9.7 0.00 0.00 0.03 99 1011.5
20260506114646 23 154 6.4 11.3 0.00 0.00 0.03 99 1011.9
20260506114147 23 133 4.8 9.7 0.00 0.00 0.03 99 1011.5
20260506113646 23 171 9.7 9.7 0.00 0.00 0.03 99 1011.5
20260506113147 23 157 6.4 8.0 0.00 0.00 0.03 99 1011.5
20260506112646 23 135 4.8 9.7 0.00 0.00 0.03 99 1011.9
20260506112147 23 147 8.0 11.3 0.00 0.00 0.03 99 1011.9
20260506111647 23 168 11.3 11.3 0.00 0.00 0.03 99 1011.5
20260506111149 23 160 12.9 17.7 0.05 0.00 0.03 99 1011.5
20260506110648 23 164 9.7 11.3 0.05 0.00 0.03 99 1011.5
20260506110147 23 164 11.3 12.9 0.05 0.00 0.03 99 1011.5
20260506105649 23 150 4.8 11.3 0.05 0.00 0.00 98 1011.2
20260506105147 23 167 6.4 12.9 0.05 0.00 0.00 98 1011.2
20260506104648 23 142 8.0 8.0 0.00 0.00 0.00 98 1011.2
20260506104146 23 165 11.3 11.3 0.00 0.00 0.00 97 1011.2
20260506103646 23 138 6.4 11.3 0.00 0.00 0.00 97 1011.2
20260506103146 23 168 8.0 12.9 0.00 0.00 0.00 96 1011.2
20260506102648 23 162 4.8 8.0 0.00 0.00 0.00 95 1011.2
20260506102149 23 154 11.3 14.5 0.00 0.00 0.00 94 1011.2
20260506101647 23 162 4.8 14.5 0.00 0.00 0.00 94 1010.8
20260506101150 23 164 8.0 12.9 0.00 0.00 0.00 94 1011.2
20260506100647 23 145 6.4 14.5 0.00 0.00 0.00 94 1011.2
20260506100146 23 180 9.7 14.5 0.00 0.00 0.00 94 1011.2
20260506095650 23 146 4.8 12.9 0.00 0.00 0.00 94 1011.2
20260506095147 23 146 3.2 12.9 0.00 0.00 0.00 94 1010.8
20260506094646 23 163 4.8 11.3 0.00 0.00 0.00 94 1011.2
20260506094148 23 154 8.0 11.3 0.00 0.00 0.00 94 1011.2
20260506093648 23 168 9.7 12.9 0.00 0.00 0.00 94 1010.8
20260506093147 23 165 8.0 11.3 0.00 0.00 0.00 94 1011.2
20260506092648 23 138 4.8 9.7 0.00 0.00 0.00 94 1010.8
20260506092146 23 150 8.0 9.7 0.00 0.00 0.00 93 1011.2
20260506091647 23 126 9.7 11.3 0.00 0.00 0.00 93 1011.2
20260506091148 23 151 4.8 8.0 0.00 0.00 0.00 93 1011.2
20260506090647 23 139 4.8 11.3 0.00 0.00 0.00 93 1011.2
20260506090147 23 143 8.0 9.7 0.00 0.00 0.00 93 1011.2
20260506085649 23 162 9.7 11.3 0.00 0.00 0.00 93 1011.2
20260506085147 23 146 4.8 8.0 0.00 0.00 0.00 93 1011.2
20260506084646 23 141 3.2 9.7 0.00 0.00 0.00 92 1011.2
20260506084147 23 171 3.2 8.0 0.00 0.00 0.00 92 1011.2
20260506083647 23 158 6.4 9.7 0.00 0.00 0.00 92 1011.2
20260506083148 23 144 4.8 8.0 0.00 0.00 0.00 92 1011.2
20260506082647 23 156 4.8 8.0 0.00 0.00 0.00 92 1011.2
20260506082146 23 157 6.4 9.7 0.00 0.00 0.00 92 1010.8
20260506081649 23 156 6.4 9.7 0.00 0.00 0.00 92 1011.2
20260506081146 23 160 8.0 11.3 0.00 0.00 0.00 92 1011.2
20260506080647 23 156 8.0 12.9 0.00 0.00 0.00 92 1011.2
20260506080147 23 155 4.8 9.7 0.00 0.00 0.00 92 1010.8
20260506073147 22 144 4.8 14.5 0.00 0.00 0.00 92 1011.2
20260506072647 22 166 9.7 14.5 0.00 0.00 0.00 92 1011.2
20260506072147 22 154 8.0 9.7 0.00 0.00 0.00 93 1011.2
20260506071646 22 157 9.7 14.5 0.00 0.00 0.00 93 1011.2
20260506071147 22 172 9.7 11.3 0.00 0.00 0.00 94 1011.2
20260506070647 22 148 11.3 12.9 0.00 0.00 0.00 94 1011.2
20260506070152 22 134 4.8 9.7 0.00 0.00 0.00 94 1011.2
20260506062147 22 157 4.8 9.7 0.00 0.00 0.00 93 1011.5
20260506061647 22 156 4.8 11.3 0.00 0.00 0.00 93 1011.5
20260506061148 22 138 8.0 11.3 0.00 0.00 0.00 93 1011.5
20260506060646 22 166 3.2 14.5 0.00 0.00 0.00 93 1011.5
20260506060146 22 140 8.0 11.3 0.00 0.00 0.00 93 1011.5
20260506051147 22 108 4.8 9.7 0.00 0.00 0.00 93 1011.9
20260506050646 22 159 6.4 16.1 0.00 0.00 0.00 93 1011.9
20260506050146 22 142 9.7 16.1 0.00 0.00 0.00 93 1011.5
20260506044647 22 139 9.7 16.1 0.00 0.00 0.00 93 1011.9
20260506044146 22 139 14.5 19.3 0.00 0.00 0.00 93 1011.9
20260506043647 22 118 4.8 12.9 0.00 0.00 0.00 93 1011.9
20260506043146 22 138 11.3 14.5 0.00 0.00 0.00 93 1011.9
20260506042647 22 157 6.4 14.5 0.00 0.00 0.00 93 1011.9
20260506042147 22 150 12.9 19.3 0.00 0.00 0.00 93 1011.9
20260506041647 22 139 8.0 16.1 0.00 0.00 0.00 93 1011.9
20260506041146 22 146 9.7 14.5 0.00 0.00 0.00 92 1011.9
20260506040647 22 148 9.7 16.1 0.00 0.00 0.00 92 1011.9
20260506040147 22 155 6.4 17.7 0.00 0.00 0.00 92 1011.9
20260506035647 22 148 6.4 16.1 0.00 0.00 0.00 92 1011.9
20260506035146 22 135 11.3 16.1 0.00 0.00 0.00 92 1011.9
20260506034647 22 137 11.3 17.7 0.00 0.00 0.00 91 1011.9
20260506034147 22 136 8.0 16.1 0.00 0.00 0.00 91 1011.9
20260506033647 23 141 8.0 17.7 0.00 0.00 0.00 91 1011.9
20260506033146 23 146 11.3 14.5 0.00 0.00 0.00 91 1011.9
20260506032647 23 148 12.9 17.7 0.00 0.00 0.00 91 1011.9
20260506032147 23 148 9.7 17.7 0.00 0.00 0.00 90 1011.9
20260506031647 23 148 8.0 17.7 0.00 0.00 0.00 90 1011.9
20260506031147 23 142 14.5 17.7 0.00 0.00 0.00 90 1011.9
20260506030647 23 134 8.0 14.5 0.00 0.00 0.00 90 1011.9
20260506030146 23 140 14.5 19.3 0.00 0.00 0.00 90 1011.9
20260506025646 23 132 8.0 16.1 0.00 0.00 0.00 90 1012.2
20260506025147 23 149 9.7 20.9 0.00 0.00 0.00 90 1011.9
20260506024648 23 134 8.0 19.3 0.00 0.00 0.00 89 1011.9
20260506024147 23 146 12.9 17.7 0.00 0.00 0.00 89 1011.9
20260506023647 23 126 6.4 12.9 0.00 0.00 0.00 88 1011.9
20260506023147 23 165 9.7 14.5 0.00 0.00 0.00 88 1011.5
20260506022647 23 144 8.0 11.3 0.00 0.00 0.00 88 1011.5
20260506022148 23 141 9.7 14.5 0.00 0.00 0.00 88 1011.5
20260506021646 23 166 11.3 14.5 0.00 0.00 0.00 88 1011.5
20260506021147 23 155 4.8 11.3 0.00 0.00 0.00 88 1011.5
20260506020647 23 155 11.3 12.9 0.00 0.00 0.00 87 1011.5
20260506020146 23 141 8.0 12.9 0.00 0.00 0.00 87 1011.5
20260506015647 23 144 11.3 11.3 0.00 0.00 0.00 86 1011.5
20260506015146 23 156 11.3 16.1 0.00 0.00 0.00 85 1011.5
20260506014649 23 149 4.8 11.3 0.00 0.00 0.00 84 1011.2
20260506014147 23 154 8.0 12.9 0.00 0.00 0.00 84 1011.2
20260506013647 23 161 6.4 9.7 0.00 0.00 0.00 84 1011.2
20260506013147 23 163 4.8 9.7 0.00 0.00 0.00 85 1011.2
20260506012646 23 164 9.7 12.9 0.00 0.00 0.00 85 1011.2
20260506012147 24 154 8.0 12.9 0.00 0.00 0.00 85 1011.2
20260506011646 24 156 8.0 12.9 0.00 0.00 0.00 84 1011.5
20260506011147 24 163 12.9 14.5 0.00 0.00 0.00 83 1011.2
20260506010647 24 164 8.0 12.9 0.00 0.00 0.00 83 1011.2
20260506010147 24 178 12.9 17.7 0.00 0.00 0.00 82 1011.2
20260506005647 25 166 11.3 12.9 0.00 0.00 0.00 81 1011.5
20260506005147 24 153 12.9 16.1 0.00 0.00 0.00 81 1011.2
20260506004649 25 159 14.5 19.3 0.00 0.00 0.00 82 1011.2
20260506004146 25 163 11.3 14.5 0.00 0.00 0.00 82 1011.2
20260506003653 25 176 12.9 14.5 0.00 0.00 0.00 81 1011.2
20260506003146 25 160 12.9 16.1 0.00 0.00 0.00 81 1011.5
20260506002647 25 171 11.3 14.5 0.00 0.00 0.00 80 1011.2
20260506002147 25 170 14.5 17.7 0.00 0.00 0.00 80 1011.2
20260506001647 25 166 16.1 20.9 0.00 0.00 0.00 80 1011.2
20260506001146 25 174 16.1 17.7 0.00 0.00 0.00 79 1011.2
20260506000648 25 159 11.3 14.5 0.00 0.00 0.00 79 1011.2
20260506000147 25 162 9.7 20.9 0.00 0.00 0.00 79 1011.2
20260505235646 25 152 11.3 19.3 0.00 0.00 0.00 79 1011.2
20260505235147 25 156 14.5 19.3 0.00 0.00 0.00 79 1011.2
20260505234646 25 162 9.7 17.7 0.00 0.00 0.00 79 1011.2
20260505234147 25 163 11.3 27.4 0.00 0.00 0.00 78 1011.2
20260505233647 25 148 11.3 19.3 0.00 0.00 0.00 77 1011.2
20260505233147 25 158 16.1 19.3 0.00 0.00 0.00 77 1011.2
20260505232646 25 171 11.3 20.9 0.00 0.00 0.00 76 1011.2
20260505232147 25 163 11.3 17.7 0.00 0.00 0.00 76 1011.2
20260505231646 25 162 8.0 17.7 0.00 0.00 0.00 76 1011.5
20260505231148 25 160 20.9 25.7 0.00 0.00 0.00 76 1011.5
20260505230646 25 157 11.3 25.7 0.00 0.00 0.00 76 1011.5
20260505230146 26 163 17.7 22.5 0.00 0.00 0.00 74 1011.2
20260505225646 26 133 11.3 16.1 0.00 0.00 0.00 76 1011.2
20260505225146 26 167 16.1 25.7 0.00 0.00 0.00 75 1011.2
20260505224647 26 168 14.5 20.9 0.00 0.00 0.00 75 1011.5
20260505224147 26 166 14.5 17.7 0.00 0.00 0.00 74 1011.2
20260505223647 26 154 14.5 27.4 0.00 0.00 0.00 74 1011.2
20260505223147 26 178 20.9 27.4 0.00 0.00 0.00 74 1011.2
20260505222646 26 205 16.1 27.4 0.00 0.00 0.00 74 1011.2
20260505222147 26 162 11.3 27.4 0.00 0.00 0.00 74 1011.2
20260505221649 26 164 17.7 27.4 0.00 0.00 0.00 72 1011.2
20260505221147 26 175 9.7 25.7 0.00 0.00 0.00 73 1011.2
20260505220647 26 155 14.5 24.1 0.00 0.00 0.00 73 1011.2
20260505220148 26 156 12.9 25.7 0.00 0.00 0.00 73 1011.2
20260505215647 26 171 24.1 29.0 0.00 0.00 0.00 73 1011.2
20260505215147 26 158 11.3 27.4 0.00 0.00 0.00 73 1011.2
20260505214647 26 134 12.9 29.0 0.00 0.00 0.00 73 1011.2
20260505214147 26 169 14.5 30.6 0.00 0.00 0.00 71 1011.2
20260505213646 26 150 20.9 27.4 0.00 0.00 0.00 74 1011.5
20260505213147 26 165 22.5 32.2 0.00 0.00 0.00 73 1011.2
20260505212648 26 162 12.9 27.4 0.00 0.00 0.00 74 1011.5
20260505212146 26 153 20.9 32.2 0.00 0.00 0.00 73 1011.5
20260505211647 26 162 24.1 27.4 0.00 0.00 0.00 73 1011.5
20260505211147 26 160 19.3 24.1 0.00 0.00 0.00 73 1011.5
20260505210647 26 168 14.5 30.6 0.00 0.00 0.00 73 1011.5
20260505210147 26 178 14.5 24.1 0.00 0.00 0.00 73 1011.5
20260505205647 26 171 17.7 25.7 0.00 0.00 0.00 72 1011.9
20260505205147 26 156 16.1 25.7 0.00 0.00 0.00 72 1011.9
20260505204647 26 165 14.5 27.4 0.00 0.00 0.00 71 1011.9
20260505204146 26 148 25.7 27.4 0.00 0.00 0.00 70 1011.5
20260505203646 26 165 20.9 25.7 0.00 0.00 0.00 72 1011.5
20260505203146 26 170 14.5 32.2 0.00 0.00 0.00 71 1011.5
20260505202649 26 164 20.9 33.8 0.00 0.00 0.00 70 1011.5
20260505202146 26 159 8.0 30.6 0.00 0.00 0.00 71 1011.9
20260505201646 26 161 14.5 32.2 0.00 0.00 0.00 68 1011.9
20260505201147 26 168 17.7 32.2 0.00 0.00 0.00 69 1011.5
20260505200647 27 155 11.3 24.1 0.00 0.00 0.00 69 1011.5
20260505200147 26 154 20.9 29.0 0.00 0.00 0.00 69 1011.9
20260505195647 26 161 12.9 22.5 0.00 0.00 0.00 68 1011.9
20260505195147 27 166 11.3 19.3 0.00 0.00 0.00 68 1011.9
20260505194647 27 160 12.9 24.1 0.00 0.00 0.00 65 1011.9
20260505194147 27 188 12.9 24.1 0.00 0.00 0.00 65 1011.5
20260505193647 27 169 16.1 25.7 0.00 0.00 0.00 65 1011.9
20260505193147 27 162 12.9 20.9 0.00 0.00 0.00 67 1011.9
20260505192647 27 144 16.1 24.1 0.00 0.00 0.00 67 1011.9
20260505192147 27 180 19.3 24.1 0.00 0.00 0.00 66 1011.9
20260505191648 27 171 17.7 22.5 0.00 0.00 0.00 66 1011.9
20260505191146 27 158 11.3 24.1 0.00 0.00 0.00 67 1011.9
20260505190647 27 154 16.1 29.0 0.00 0.00 0.00 66 1011.9
20260505190147 27 163 24.1 27.4 0.00 0.00 0.00 68 1012.2
20260505185646 27 156 12.9 25.7 0.00 0.00 0.00 67 1012.2
20260505185146 27 176 12.9 22.5 0.00 0.00 0.00 67 1012.2
20260505184646 27 161 12.9 25.7 0.00 0.00 0.00 67 1012.5
20260505184147 26 188 12.9 19.3 0.00 0.00 0.00 67 1012.5
20260505183646 26 178 14.5 25.7 0.00 0.00 0.00 67 1012.5
20260505183148 26 163 25.7 25.7 0.00 0.00 0.00 67 1012.5
20260505182647 27 164 12.9 24.1 0.00 0.00 0.00 66 1012.5
20260505182146 27 182 12.9 20.9 0.00 0.00 0.00 68 1012.9
20260505181647 26 186 14.5 24.1 0.00 0.00 0.00 67 1012.9
20260505181149 26 154 16.1 24.1 0.00 0.00 0.00 66 1012.9
20260505180648 27 160 14.5 17.7 0.00 0.00 0.00 66 1012.5
20260505180147 26 166 16.1 22.5 0.00 0.00 0.00 68 1012.9
20260505175648 26 181 19.3 24.1 0.00 0.00 0.00 67 1012.9
20260505175147 26 164 17.7 22.5 0.00 0.00 0.00 67 1012.9
20260505174647 26 152 16.1 27.4 0.00 0.00 0.00 68 1012.5
20260505174149 26 155 11.3 24.1 0.00 0.00 0.00 67 1012.9
20260505173647 26 161 17.7 24.1 0.00 0.00 0.00 68 1012.9
20260505173146 26 180 11.3 25.7 0.00 0.00 0.00 67 1012.9
20260505172647 26 176 14.5 25.7 0.00 0.00 0.00 68 1012.9
20260505172147 26 173 16.1 27.4 0.00 0.00 0.00 68 1012.9
20260505171647 26 172 16.1 25.7 0.00 0.00 0.00 67 1012.9
20260505171146 25 167 11.3 24.1 0.00 0.00 0.00 68 1012.9
20260505170647 25 161 14.5 27.4 0.00 0.00 0.00 67 1012.9
20260505170147 26 159 16.1 29.0 0.00 0.00 0.00 67 1012.9
20260505165651 25 182 8.0 24.1 0.00 0.00 0.00 69 1012.9
20260505165148 25 158 9.7 24.1 0.00 0.00 0.00 70 1012.9
20260505164646 25 144 24.1 25.7 0.00 0.00 0.00 69 1012.5
20260505164147 25 200 12.9 25.7 0.00 0.00 0.00 68 1012.9